Location: Unspecified
(0.0000°N, 0.0000°E)
Time: 13:12:50
(UTC+00:00)

N. Korean satellite - Pass Details

Date: 02 December 2021
Orbit: 446 x 495 km, 97.3° (Epoch: 07 December)

Event Time Altitude Azimuth Distance (km) Brightness Sun altitude
Rises 04:25:12 0° 28° (NNE) 2,432 10.2 -19.5°
Reaches altitude 10° 04:27:23 10° 40° (NE) 1,568 9.3 -19.0°
Maximum altitude 04:30:20 29° 101° (E) 861 8.6 -18.3°
Drops below altitude 10° 04:33:19 10° 163° (SSE) 1,591 9.7 -17.6°
Sets 04:35:33 0° 174° (S) 2,474 10.6 -17.1°
